User: anonymous   Login
Location: Unspecified
(0.0000°N, 0.0000°E)
Time: 07:11:40
(UTC+00:00)
Language:

SWISSCUBE - Orbit

View from above orbital plane
View from above orbital plane
View from above satellite
View from above satellite

Ground track
Ground track

The orbit data is extracted from the following two-line orbital elements,

1 35932U 09051B   23333.58676467  .00002794  00000-0  61498-3 0  9993
2 35932  98.4948 207.6923 0006549 210.1461 149.9361 14.58267615753311
Epoch (UTC): 29 November 2023 14:04:56
Eccentricity: 0.0006549
inclination: 98.4948°
perigee height: 694 km
apogee height: 703 km
right ascension of ascending node: 207.6923°
argument of perigee: 210.1461°
revolutions per day: 14.58267615
mean anomaly at epoch: 149.9361°
orbit number at epoch: 75331

The dashed part of the orbit path shows where the satellite is in the earth's shadow,  

DLR